Location: 22
(39.7117°N, 89.5929°W)
Time: 10:11:11
(UTC-05:00)

Transit 2A - Pass Details

Date: 08 August 2024
Orbit: 590 x 961 km, 66.7° (Epoch: 13 September)

Event Time Altitude Azimuth Distance (km) Brightness Sun altitude
Rises 03:05:44 0° 160° (SSE) 3,168 - -27.5°
Reaches altitude 10° 03:08:52 10° 139° (SE) 2,327 - -27.2°
Exits shadow 03:09:56 13° 129° (SE) 2,136 8.2 -27.1°
Maximum altitude 03:12:05 16° 102° (ESE) 1,998 8.4 -26.8°
Drops below altitude 10° 03:15:30 10° 65° (ENE) 2,489 9.4 -26.5°
Sets 03:19:01 0° 46° (NE) 3,502 10.7 -26.1°
